This is the latest recevied weather packets stored in our database for station/object W0VI. If no packets are shown the sender has not sent any weather packets the latest 10 day(s).
| Time | Temp. | Humidity | Pressure | Rain* | Wind** | Luminosity | Snow |
|---|---|---|---|---|---|---|---|
| 1777686137 | 8.89° C | 42% | 1018.3 hPa | 0 mm | - | 0 W/m² | - |
| 1777685833 | 8.89° C | 41% | 1018.3 hPa | 0 mm | - | 0 W/m² | - |
| 1777685528 | 8.89° C | 40% | 1018.2 hPa | 0 mm | - | 0 W/m² | - |
| 1777685226 | 9.44° C | 40% | 1018.3 hPa | 0 mm | - | 0 W/m² | - |
| 1777684924 | 9.44° C | 40% | 1018.3 hPa | 0 mm | - | 1 W/m² | - |
| 1777684620 | 10° C | 39% | 1018.4 hPa | 0 mm | - | 3 W/m² | - |
| 1777684316 | 10° C | 37% | 1018.1 hPa | 0 mm | - | 5 W/m² | - |
| 1777684014 | 10° C | 36% | 1018.3 hPa | 0 mm | - | 8 W/m² | - |
| 1777683710 | 10.56° C | 35% | 1018.3 hPa | 0 mm | - | 10 W/m² | - |
| 1777683407 | 10.56° C | 35% | 1018.3 hPa | 0 mm | - | 14 W/m² | - |
| 1777683105 | 10.56° C | 35% | 1018.2 hPa | 0 mm | - | 16 W/m² | - |
| 1777682801 | 11.11° C | 34% | 1018.3 hPa | 0 mm | - | 20 W/m² | - |
| 1777682497 | 11.11° C | 33% | 1018.2 hPa | 0 mm | - | 27 W/m² | - |
| 1777682196 | 11.11° C | 34% | 1018.4 hPa | 0 mm | - | 32 W/m² | - |
| 1777681892 | 11.11° C | 35% | 1018.3 hPa | 0 mm | - | 41 W/m² | - |
| 1777681588 | 11.11° C | 35% | 1018.2 hPa | 0 mm | - | 47 W/m² | - |
| 1777681286 | 11.67° C | 33% | 1018.2 hPa | 0 mm | - | 49 W/m² | - |
| 1777680984 | 11.67° C | 33% | 1018.4 hPa | 0 mm | - | 55 W/m² | - |
| 1777680681 | 11.67° C | 33% | 1018.3 hPa | 0 mm | - | 65 W/m² | - |
| 1777680379 | 11.11° C | 33% | 1018.4 hPa | 0 mm | - | 63 W/m² | - |
| 1777680076 | 11.67° C | 33% | 1018.1 hPa | 0 mm | - | 72 W/m² | - |
| 1777679772 | 11.67° C | 33% | 1018.2 hPa | 0 mm | - | 105 W/m² | - |
| 1777679468 | 12.22° C | 31% | 1018.2 hPa | 0 mm | - | 108 W/m² | - |
| 1777679163 | 11.67° C | 33% | 1018.4 hPa | 0 mm | - | 132 W/m² | - |
| 1777678861 | 11.67° C | 32% | 1018.2 hPa | 0 mm | - | 129 W/m² | - |
* Rain latest hour (hover to see other rain measurements)
** Current wind speed in m/s (hover to see current wind gust speed)